Regional Weather Roundup
Issued by NWS Charleston, SC

Current Version | Previous Version | Text Only | Print | Product List | Glossary Off
Versions: 1 2 3 4 5 6 7 8 9 10 11 12 13 14 15 16 17 18 19 20 21 22 23 24 25 26 27 28 29 30 31 32 33 34 35 36 37 38 39 40 41 42 43 44 45 46 47 48 49 50
725 ASUS42 KCHS 121028 RWRCHS REGIONAL WEATHER ROUNDUP NATIONAL WEATHER SERVICE CHARLESTON SC 500 AM EST FRI FEB 12 2016 NOTE: "FAIR" INDICATES FEW OR NO CLOUDS BELOW 12,000 FEET WITH NO SIGNIFICANT WEATHER AND/OR OBSTRUCTIONS TO VISIBILITY. NOT ALL STATIONS ARE QUALITY CONTROLLED BY THE NATIONAL WEATHER SERVICE. USE DATA WITH CAUTION...ESPECIALLY DEWPOINT OBSERVATIONS. SCZ027-030-031-034>040-042>050-121100- ...SOUTHEAST SOUTH CAROLINA... CITY SKY/WX TMP DP RH WIND PRES REMARKS N CHARLESTON PTCLDY 44 37 76 N3 30.15F WATERFRONT PRK N/A 48 42 80 NE5 30.01S MOUNT PLEASANT CLOUDY 46 39 76 NE3 30.15F JOHNS ISLAND CLOUDY 46 43 87 NE5 30.15F PINOPOLIS N/A 45 36 70 VRB3 30.10R MONCKS CORNER FAIR 41 32 70 CALM 30.16F SUMMERVILLE FAIR 41 36 81 N3 30.16F BEAUFORT MCAS PTCLDY 40 38 93 CALM 30.15F BEAUFORT ARPT FAIR 43 43 100 CALM 30.14S HILTON HEAD IS MOCLDY 45 45 100 CALM 30.16S WALTERBORO PTSUNNY 45 37 76 E5 30.15F ALLENDALE FAIR 41 36 81 CALM 30.13F ...SOUTHERN MIDLANDS AND PEE DEE... CITY SKY/WX TMP DP RH WIND PRES REMARKS GEORGETOWN CLOUDY 46 36 66 E6 30.18S KINGSTREE CLOUDY 41 32 70 CALM 30.18F ORANGEBURG PTCLDY 42 34 73 NE3 30.16F BARNWELL FAIR 41 36 81 CALM 30.15F AIKEN FAIR 34 28 80 CALM 30.18R MANNING FAIR 41 32 70 CALM 30.17F COLUMBIA CLOUDY 37 29 72 N3 30.17S SUMTER CLOUDY 35 29 78 NE6 30.16F WCI 30 FLORENCE CLOUDY 32 29 88 NE7 30.21S WCI 26 MYRTLE BEACH CLOUDY 46 32 57 NE10 30.21F N MYRTLE BEACH CLOUDY 41 30 65 NE9 30.20F $$ GAZ063-065-086>088-099>101-113>116-118-119-134>141-150-121100- ...SOUTHEAST GEORGIA... CITY SKY/WX TMP DP RH WIND PRES REMARKS SAVANNAH ARPT MOCLDY 42 40 92 CALM 30.15S HUNTER AAF CLOUDY 51 51 100 S8 30.11F FORT STEWART CLOUDY 47 44 89 CALM 30.13S STATESBORO CLEAR 41 41 98 CALM 30.13F SYLVANIA SUNNY 37 37 100 CALM 30.14S CLAXTON CLOUDY 42 41 97 CALM 30.14S ...CSRA...CENTRAL AND FAR SOUTHEAST GEORGIA... CITY SKY/WX TMP DP RH WIND PRES REMARKS THOMSON CLOUDY 36 35 96 CALM 30.19R AUGUSTA-BUSH CLOUDY 38 34 85 CALM 30.14F AUGUSTA-DANIEL PTCLDY 44 32 62 E3 30.14F SWAINSBORO FAIR 37 36 93 CALM 30.14R VIDALIA CLOUDY 45 41 87 CALM 30.13S EASTMAN CLOUDY 47 40 76 CALM 30.15S HAZLEHURST CLOUDY 57 54 89 SW6 30.12S ALMA CLOUDY 56 52 86 SW8 30.14S WAYCROSS CLOUDY 57 57 99 SW7 30.16S JESUP CLOUDY 55 54 94 SW5 30.16R BAXLEY CLOUDY 57 55 94 S6 30.13S BRUNSWICK CLOUDY 54 52 94 SW7 30.18R SAINT SIMONS CLOUDY 53 51 93 SW6 30.17S $$ SCZ027-028-034-036>038-045-046-048>050-GAZ119-141-121100- ...LAKE AND SUPPLEMENTAL COASTAL OBSERVATIONS... STATION/POSITION TIME TEMP WIND PRES WAVE SWELL AIR SEA DIR/SP/G HT/PER HT/PER/DIR (UTC) (F) (DEG/KT/KT) (MB) (FT/S) (FT/S/D) WINYAH BAY 0900 49 80/ 7 1021.0 LAKE MURRAY 0900 35 20/ 1/ 3 1021.0F ACE BASIN NERRS 0900 44 CALM 1021.0S FORT PULASKI 1000 49 N/A SAPELO ISLAND 1000 49 190/ 6 1021.0S $$ ANZ835-935-AMZ111-154-330-350-352-354-370-450-454-472-121100- ...C-MAN AND BUOY OBSERVATIONS... STATION/POSITION TIME TEMP WIND PRES WAVE SWELL AIR SEA DIR/SP/G HT/PER HT/PER/DIR (UTC) (F) (DEG/KT/KT) (MB) (FT/S) (FT/S/D) BUOY 41004 0950 60 69 240/ 14/ 16 1020.5F 2/ 2 BUOY 41008 0950 53 52 220/ 14/ 16 1021.7F 3/ 6 FOLLY BEACH CMAN 1000 49 40/ 10/ 11 1021.0F CAPERS NEARSHORE 0908 51 70/ 12/ 16 1021.0F FRIPP NEARSHORE 0900 51 280/ 2/ 4 1020.4F STATION/POSITION TIME TEMP WIND PRES WAVE SWELL AIR SEA DIR/SP/G HT/PER HT/PER/DIR (UTC) (F) (DEG/KT/KT) (MB) (FT/S) (FT/S/D) 5E ST. MARYS GA 0921 56 N/A 2/ 5 FRYING PAN BUOY 1000 51 56 50/ 12/ 14 1022.8F BUOY 41025 0950 40 69 10/ 12/ 16 1025.3F 3/ 9 2/ 80/ 9 CAPE LOOKOUT NC NOT AVBL BUOY 41002 0950 56 68 40/ 4/ 8 N/A 5/ 6 5/300/ 6 BUOY 41010 0920 67 72 1024.3F ST AUGUSTINE FL 1000 50 56 220/ 4/ 5 1024.0S $$

USA.gov is the U.S. government's official web portal to all federal, state and local government web resources and services.